Regional Weather Roundup
Issued by NWS Northern Indiana

Home | Current Version | Previous Version | Graphics & Text | Print | Product List | Glossary On
Versions: 1 2 3 4 5 6 7 8 9 10 11 12 13 14 15 16 17 18 19 20 21 22 23 24 25 26 27 28 29 30 31 32 33 34 35 36 37 38 39 40 41 42 43 44 45 46 47 48 49 50
000
ASUS43 KIWX 232010
RWRIWX

KIWX WEATHER ROUNDUP
NATIONAL WEATHER SERVICE NORTHERN INDIANA
400 PM EDT SUN JUL 23 2017

NOTE: "FAIR" INDICATES FEW OR NO CLOUDS BELOW 12,000 FEET WITH NO
SIGNIFICANT WEATHER AND/OR OBSTRUCTIONS TO VISIBILITY.

* THESE STATIONS ARE NOT UNDER NWS QUALITY CONTROL. THEY ALSO MAY NOT
  REPORT WEATHER SUCH AS PRECIPITATION OR FOG.

INZ001>027-232100-
NORTHERN INDIANA

CITY           SKY/WX    TMP DP  RH WIND       PRES   REMARKS
GARY*          MOSUNNY   88  66  48 VRB7      29.78F
VALPARAISO     SUNNY     89  67  47 N8        29.79S
MICHIGAN CITY* SUNNY     84  68  58 N9        29.79S
LAPORTE*       SUNNY     84  65  51 N12       29.79S
KNOX*          MOSUNNY   82  66  57 NW10      29.78S
SOUTH BEND     MOSUNNY   85  66  53 N16G22    29.78F
ELKHART*       MOSUNNY   84  66  54 NW10G17   29.78S
GOSHEN         PTSUNNY   86  69  56 NW13      29.76F
MONTICELLO*    PTSUNNY   85  74  70 NW20G25   29.78S
LOGANSPORT*    LGT RAIN  81  70  69 N13G25    29.81R
ROCHESTER*     PTSUNNY   79  68  69 NW7G23    29.79R
WARSAW*        MOSUNNY   82  70  65 NW13      29.77S
AUBURN*        SUNNY     86  68  54 W8        29.77F
FORT WAYNE     PTSUNNY   85  71  63 W9        29.77F
HUNTINGTON*    CLOUDY    82  72  71 CALM      29.77F
PERU/GRISSOM   MOSUNNY   84  73  70 W9        29.78F
MARION*        CLOUDY    81  73  78 N5        29.79F

$$
INZ028>050-232100-
CENTRAL INDIANA

CITY           SKY/WX    TMP DP  RH WIND       PRES   REMARKS
LAFAYETTE      SUNNY     85  74  69 W9        29.78F
KOKOMO*        PTSUNNY   84  72  67 W6        29.80F
MUNCIE*        CLOUDY    85  73  67 W6        29.79F
INDIANAPOLIS   CLOUDY    71  68  90 W14       29.81R THUNDER

$$
MIZ043>046-050>051-056>058-064>065-071>073-077>080-232100-
SOUTHWEST LOWER MICHIGAN

CITY           SKY/WX    TMP DP  RH WIND       PRES   REMARKS
BATTLE CREEK   SUNNY     85  67  54 NW14G21   29.77F
BENTON HARBOR  SUNNY     81  69  67 NW8       29.78F
COLDWATER*     MOSUNNY   79  73  81 SW5       29.76F
HILLSDALE*     CLOUDY    75  64  69 N7        29.78R
HOLLAND        PTSUNNY   81  71  71 VRB7      29.79F
GRAND RAPIDS   CLOUDY    83  68  60 W14       29.76F
KALAMAZOO      MOSUNNY   85  65  51 NW17      29.77F
STURGIS*       CLOUDY    83  70  62 NW12G20   29.76S
THREE RIVERS*  FAIR      84  65  52 NW17      29.77S

$$
OHZ001>008-015>018-024>025-232100-
NORTHWEST OHIO

CITY           SKY/WX    TMP DP  RH WIND       PRES   REMARKS
WAUSEON*       FAIR      86  72  62 MISG      29.75S
DEFIANCE       MOSUNNY  N/A N/A N/A SW7       29.75F
FINDLAY        CLOUDY    85  71  63 W9        29.75F
TOLEDO EXPRESS MOSUNNY   84  69  60 W8        29.74F
TOLEDO METCALF MOSUNNY   84  69  60 CALM      29.75F
LIMA           CLOUDY    80  73  79 NW6       29.78R

$$
AND FOR LAKE MICHIGAN COASTAL AND OPEN LAKE BUOY OBSERVATIONS

STATION/POSITION TEMP    WIND        PRES    VSBY  WAVE
                 AIR SEA DIR/SP/G                  HT/PER
                 (F)     (DEG/KT/KT) (MB)    (MI)  (FT/S)
CALUMET HARBOR    82      50/  5/  7 1008.1F
MICHIGAN CITY     81     310/  3/  4   N/A
BURNS HARBOR      84      30/  2/  3 1008.8F
SAINT JOSEPH      78     300/  4/  6 1009.8
SOUTH LAKE BUOY   74 72  280/  4/  4 1008.7R         1
4 MI NW BRIDGMAN  76 76  330/  8/  8 1008.4          1
MICHIGAN CITY     79 78   10/  4/  4   N/A           1

$$
&&




USA.gov is the U.S. government's official web portal to all federal, state and local government web resources and services.